Weather History for Crestview, FL

Change the Weather History Date:

Sunday, May 5, 2013

  Actual Average Record
Temperature  
Mean Temperature 57 °F -  
Max Temperature 75 °F 84 °F 94 °F (1952)
Min Temperature 39 °F 54 °F 39 °F (2013)
Degree Days  
Heating Degree Days 8    
Growing Degree Days 7 (Base 50)    
Moisture  
Dew Point 42 °F    
Average Humidity 59    
Maximum Humidity 93    
Minimum Humidity 24    
Precipitation  
Precipitation 0.00 in - - ()
Sea Level Pressure  
Sea Level Pressure 29.89 in    
Wind  
Wind Speed 5 mph (West)    
Max Wind Speed 18 mph    
Max Gust Speed 28 mph    
Visibility 10 miles    
Events      
Averages and records for this station are not official NWS values.
T = Trace of Precipitation, MM = Missing Value Source: NWS Daily Summary

Daily Weather History Graph

Daily Weather History Graph

Search for Another Location

Airport:

Trip Planner

Search our weather history database for the weather conditions in past years. The results will help you decide how hot, cold, wet, or windy it might be!

Date:

Astronomy

May. 05, 2013 Rise Set
Actual Time 5:58 AM CDT 7:27 PM CDT
Civil Twilight 5:32 AM CDT 7:53 PM CDT
Nautical Twilight 5:01 AM CDT 8:24 PM CDT
Astronomical Twilight 4:29 AM CDT 8:56 PM CDT
Moon 3:11 AM CDT (5/5) 3:41 PM CDT (5/5)
Length of Visible Light 14h 20m
Length of Day
13h 29m
Waning Crescent, 18% of the Moon is Illuminated
May 5
Waning Crescent
May 9
New
May 17
First Quarter
May 24
Full
May 31
Last Quarter

Hourly Weather History & Observations

Time (CDT) Temp. Dew Point Humidity Pressure Visibility Wind Dir Wind Speed Gust Speed Precip Events Conditions
12:53 AM 44.1 °F 41.0 °F 89% 29.92 in 10.0 mi Calm Calm - N/A   Clear
1:53 AM 42.1 °F 39.0 °F 89% 29.90 in 10.0 mi Calm Calm - N/A   Clear
2:53 AM 43.0 °F 39.9 °F 89% 29.90 in 10.0 mi Calm Calm - N/A   Clear
3:53 AM 41.0 °F 37.9 °F 89% 29.90 in 10.0 mi Calm Calm - N/A   Clear
4:53 AM 41.0 °F 37.9 °F 89% 29.90 in 10.0 mi Calm Calm - N/A   Clear
5:53 AM 39.9 °F 37.9 °F 93% 29.90 in 10.0 mi Calm Calm - N/A   Clear
6:53 AM 44.1 °F 41.0 °F 89% 29.91 in 10.0 mi Calm Calm - N/A   Clear
7:53 AM 54.0 °F 46.0 °F 75% 29.90 in 10.0 mi Calm Calm - N/A   Clear
8:53 AM 64.0 °F 48.0 °F 56% 29.89 in 10.0 mi SSW 5.8 mph - N/A   Scattered Clouds
9:53 AM 70.0 °F 54.0 °F 57% 29.87 in 10.0 mi SW 16.1 mph 21.9 mph 0.00 in   Partly Cloudy
10:53 AM 71.1 °F 51.1 °F 49% 29.86 in 10.0 mi SW 17.3 mph 23.0 mph 0.00 in   Scattered Clouds
11:53 AM 73.9 °F 48.9 °F 41% 29.85 in 10.0 mi SW 15.0 mph 27.6 mph N/A   Scattered Clouds
12:53 PM 75.9 °F 43.0 °F 31% 29.84 in 10.0 mi WSW 18.4 mph 24.2 mph N/A   Partly Cloudy
1:53 PM 75.9 °F 37.0 °F 24% 29.83 in 10.0 mi WSW 17.3 mph 26.5 mph N/A   Clear
2:53 PM 75.0 °F 39.9 °F 28% 29.81 in 10.0 mi West 12.7 mph 20.7 mph N/A   Mostly Cloudy
3:53 PM 73.0 °F 42.1 °F 33% 29.82 in 10.0 mi West 12.7 mph 25.3 mph N/A   Partly Cloudy
4:53 PM 68.0 °F 41.0 °F 37% 29.84 in 10.0 mi WNW 16.1 mph 24.2 mph N/A   Clear
5:53 PM 66.0 °F 37.9 °F 36% 29.87 in 10.0 mi NW 16.1 mph - N/A   Clear
7:53 PM 59.0 °F 37.9 °F 46% 29.92 in 10.0 mi NW 9.2 mph - N/A   Clear
8:53 PM 57.0 °F 37.9 °F 49% 29.95 in 10.0 mi WNW 8.1 mph - N/A   Clear
9:53 PM 55.0 °F 37.9 °F 53% 29.97 in 10.0 mi NW 6.9 mph - N/A   Clear
10:53 PM 52.0 °F 39.0 °F 61% 29.98 in 10.0 mi WNW 6.9 mph - N/A   Clear
11:53 PM 52.0 °F 39.9 °F 63% 29.98 in 10.0 mi WNW 8.1 mph - N/A   Clear